Date String (YYYY-MM-DD hh:mm:ss) UTC,Instrument flags,Ambient pressure (hPa),Sample flow (lpm),Bypass flow (lpm),Sample temperature (°C),Ambient temperature (°C),ASC tube jacket temperature (°C),LED temperature (°C),Box temperature (°C),Sample RH (%),Span deviation,Mass concentration (μg/m³),Mass concentration (μg/m³),Mass concentration (μg/m³)
DateTimeUTC,F1_M11,P_M11,Q1_M11,Q2_M11,T1_M11,T2_M11,T3_M11,T4_M11,T5_M11,U1_M11,ZSPAN_M11,X0_M11,X2_M11,X1_M11
2023-04-23 06:00:00,,0831.4,5.00,0.00,22.5,20.8,00.0,30.9,24.0,14.7,0000.0,0005.77,0003.54,0003.23
2023-04-23 06:01:00,,0831.4,5.00,0.00,22.4,20.8,00.0,30.9,24.0,14.8,0000.0,0005.67,0003.52,0003.22
2023-04-23 06:02:00,,0831.4,5.00,0.00,22.4,20.8,00.0,30.9,24.0,14.8,0000.0,0005.72,0003.53,0003.21
2023-04-23 06:03:00,,0831.4,5.00,0.00,22.4,20.8,00.0,30.9,23.9,14.6,0000.0,0005.74,0003.53,0003.21
2023-04-23 06:04:00,,0831.4,5.00,0.00,22.4,20.7,00.0,30.9,23.9,14.5,0000.0,0005.75,0003.52,0003.21
2023-04-23 06:05:00,,0831.4,5.00,0.00,22.4,20.7,00.0,30.8,23.9,14.4,0000.0,0005.77,0003.53,0003.21
2023-04-23 06:06:00,,0831.4,5.00,0.00,22.4,20.7,00.0,30.8,23.9,14.4,0000.0,0005.54,0003.53,0003.21
2023-04-23 06:07:00,,0831.4,5.00,0.00,22.4,21.3,00.0,30.8,24.2,14.3,0000.0,0004.95,0003.50,0003.20
2023-04-23 06:08:00,,0831.5,4.99,0.00,22.5,22.3,00.0,30.7,24.5,14.2,0000.0,0004.84,0003.49,0003.19
2023-04-23 06:09:00,,0831.4,4.99,0.00,22.7,23.0,00.0,30.8,24.7,14.1,0000.0,0004.83,0003.48,0003.19
2023-04-23 06:10:00,,0831.5,5.01,0.00,22.7,22.9,00.0,30.8,24.6,14.0,0000.0,0004.77,0003.47,0003.19
2023-04-23 06:11:00,,0831.4,5.01,0.00,22.7,22.6,00.0,30.9,24.5,14.0,0000.0,0004.93,0003.46,0003.18
2023-04-23 06:12:00,,0831.4,5.00,0.00,22.7,22.3,00.0,30.9,24.4,14.0,0000.0,0005.78,0003.45,0003.17
2023-04-23 06:13:00,,0831.4,4.99,0.00,22.7,22.0,00.0,31.0,24.3,14.0,0000.0,0005.69,0003.43,0003.17
2023-04-23 06:14:00,,0831.4,5.00,0.00,22.7,21.8,00.0,31.0,24.3,14.0,0000.0,0005.62,0003.40,0003.16
2023-04-23 06:15:00,,0831.4,5.01,0.00,22.7,21.6,00.0,31.0,24.2,14.0,0000.0,0005.80,0003.42,0003.16
2023-04-23 06:16:00,,0831.4,4.99,0.00,22.7,21.4,00.0,31.0,24.2,14.1,0000.0,0005.63,0003.38,0003.15
2023-04-23 06:17:00,,0831.4,4.99,0.00,22.6,21.3,00.0,31.0,24.2,14.3,0000.0,0005.49,0003.35,0003.15
2023-04-23 06:18:00,,0831.4,5.00,0.00,22.6,21.2,00.0,31.0,24.2,14.5,0000.0,0005.48,0003.36,0003.15
2023-04-23 06:19:00,,0831.3,5.00,0.00,22.6,21.1,00.0,31.0,24.2,14.5,0000.0,0005.49,0003.36,0003.15
2023-04-23 06:20:00,,0831.4,5.01,0.00,22.6,21.1,00.0,31.0,24.2,14.5,0000.0,0005.57,0003.40,0003.17
2023-04-23 06:21:00,,0831.3,5.00,0.00,22.6,21.0,00.0,31.0,24.1,14.3,0000.0,0005.68,0003.43,0003.18
2023-04-23 06:22:00,,0831.3,5.00,0.00,22.6,21.0,00.0,31.0,24.1,14.2,0000.0,0005.60,0003.41,0003.17
2023-04-23 06:23:00,,0831.3,5.00,0.00,22.5,20.9,00.0,31.0,24.0,14.2,0000.0,0004.58,0003.41,0003.17
2023-04-23 06:24:00,,0831.3,5.00,0.00,22.5,20.8,00.0,30.9,24.0,14.1,0000.0,0004.54,0003.40,0003.16
2023-04-23 06:25:00,,0831.3,5.00,0.00,22.5,20.8,00.0,30.9,24.0,14.1,0000.0,0004.56,0003.40,0003.15
2023-04-23 06:26:00,,0831.4,5.00,0.00,22.4,20.7,00.0,30.9,23.9,14.2,0000.0,0004.34,0003.37,0003.15
2023-04-23 06:27:00,,0831.4,4.99,0.00,22.4,20.7,00.0,30.9,23.9,14.2,0000.0,0004.33,0003.37,0003.15
2023-04-23 06:28:00,,0831.3,5.01,0.00,22.4,20.7,00.0,30.9,23.9,14.1,0000.0,0004.41,0003.38,0003.14
2023-04-23 06:29:00,,0831.3,5.01,0.00,22.4,20.7,00.0,30.9,23.9,14.1,0000.0,0005.11,0003.40,0003.15
2023-04-23 06:30:00,,0831.3,5.01,0.00,22.4,20.7,00.0,30.9,23.9,14.2,0000.0,0006.06,0003.41,0003.15
2023-04-23 06:31:00,,0831.3,4.99,0.00,22.4,20.7,00.0,30.9,23.9,14.2,0000.0,0005.96,0003.38,0003.12
2023-04-23 06:32:00,,0831.4,5.00,0.00,22.4,20.7,00.0,30.9,23.9,14.2,0000.0,0005.87,0003.35,0003.11
2023-04-23 06:33:00,,0831.3,5.00,0.00,22.4,20.7,00.0,30.8,23.9,14.2,0000.0,0005.93,0003.36,0003.11
2023-04-23 06:34:00,,0831.4,5.00,0.00,22.4,20.9,00.0,30.8,24.0,14.2,0000.0,0005.97,0003.37,0003.11
2023-04-23 06:35:00,,0831.4,5.02,0.00,22.5,21.6,00.0,30.8,24.4,14.1,0000.0,0006.10,0003.40,0003.13
2023-04-23 06:36:00,,0831.4,4.98,0.00,22.6,22.7,00.0,30.7,24.7,14.0,0000.0,0006.07,0003.40,0003.13
2023-04-23 06:37:00,,0831.4,4.99,0.00,22.7,23.2,00.0,30.8,24.8,14.0,0000.0,0006.09,0003.41,0003.13
2023-04-23 06:38:00,,0831.4,5.00,0.00,22.8,23.0,00.0,30.9,24.6,14.0,0000.0,0006.21,0003.44,0003.14
2023-04-23 06:39:00,,0831.3,5.00,0.00,22.8,22.7,00.0,30.9,24.5,14.0,0000.0,0006.18,0003.44,0003.15
2023-04-23 06:40:00,,0831.3,5.00,0.00,22.8,22.4,00.0,31.0,24.5,14.0,0000.0,0005.51,0003.43,0003.15
2023-04-23 06:41:00,,0831.3,5.00,0.00,22.8,22.2,00.0,31.0,24.5,14.0,0000.0,0004.62,0003.42,0003.14
2023-04-23 06:42:00,,0831.3,5.01,0.00,22.8,22.0,00.0,31.0,24.4,14.0,0000.0,0004.70,0003.43,0003.14
2023-04-23 06:43:00,,0831.3,4.99,0.00,22.8,21.9,00.0,31.1,24.4,14.0,0000.0,0004.71,0003.44,0003.15
2023-04-23 06:44:00,,0831.3,5.01,0.00,22.8,21.8,00.0,31.1,24.4,13.9,0000.0,0004.72,0003.44,0003.15
2023-04-23 06:45:00,,0831.4,5.01,0.00,22.8,21.7,00.0,31.1,24.3,13.9,0000.0,0004.68,0003.43,0003.15
2023-04-23 06:46:00,,0831.3,5.00,0.00,22.8,21.6,00.0,31.1,24.3,13.9,0000.0,0004.58,0003.41,0003.15
2023-04-23 06:47:00,,0831.3,4.99,0.00,22.8,21.5,00.0,31.1,24.3,14.0,0000.0,0004.60,0003.42,0003.15
2023-04-23 06:48:00,,0831.3,4.99,0.00,22.7,21.4,00.0,31.1,24.3,14.0,0000.0,0004.66,0003.42,0003.15
2023-04-23 06:49:00,,0831.4,5.01,0.00,22.7,21.4,00.0,31.1,24.3,14.0,0000.0,0004.70,0003.43,0003.15
2023-04-23 06:50:00,,0831.3,5.01,0.00,22.7,21.3,00.0,31.1,24.3,14.1,0000.0,0004.81,0003.46,0003.16
2023-04-23 06:51:00,,0831.3,5.01,0.00,22.7,21.3,00.0,31.1,24.3,14.2,0000.0,0004.87,0003.48,0003.17
2023-04-23 06:52:00,,0831.3,4.99,0.00,22.7,21.3,00.0,31.1,24.3,14.3,0000.0,0005.01,0003.55,0003.23
2023-04-23 06:53:00,,0831.3,4.99,0.00,22.7,21.3,00.0,31.1,24.3,14.4,0000.0,0005.13,0003.61,0003.29
2023-04-23 06:54:00,,0831.3,5.01,0.00,22.7,21.3,00.0,31.1,24.2,14.5,0000.0,0005.22,0003.67,0003.36
2023-04-23 06:55:00,,0831.3,5.01,0.00,22.7,21.3,00.0,31.1,24.2,14.6,0000.0,0005.42,0003.76,0003.44
2023-04-23 06:56:00,,0831.3,5.01,0.00,22.7,21.3,00.0,31.1,24.2,14.7,0000.0,0005.64,0003.85,0003.52
2023-04-23 06:57:00,,0831.2,4.99,0.00,22.7,21.2,00.0,31.1,24.2,14.8,0000.0,0005.75,0003.93,0003.61
2023-04-23 06:58:00,,0831.2,5.00,0.00,22.7,21.2,00.0,31.1,24.2,14.7,0000.0,0006.01,0004.03,0003.68
2023-04-23 06:59:00,,0831.2,5.01,0.00,22.7,21.2,00.0,31.1,24.2,14.7,0000.0,0006.09,0004.10,0003.76
